[[{"header":{"parameterUnit":"m.s-1","parameterCategory":2,"la1":30.2991,"la2":30.254,"lo1":-89.0895,"lo2":-89.0444,"dy":0.0017,"dx":0.0017,"nx":28,"ny":28,"refTime":"2023-03-29T21:00:00:Z","depth":"0","parameterNumber":2,"parameterNumberName":"U-component_of_CURRENTS"},"data":[0,0,0,0,0,0,0,0,0,0,0,0,0,0,0,0,0,0,0,0,0,0,0,0,0,0,0,0,0,0,0,0,0,0,0,0,0,0,0,0,0,0,0,0,0,0,0,0,0,0,0,0,0,0,0,0,0,0,-0.2881,-0.2881,0,-0.2932,-0.2933,-0.2933,-0.2946,-0.2946,-0.2945,-0.2944,-0.292,-0.292,-0.292,0,0,0,0,0,0,0,0,0,0,0,0,0,-0.2645,-0.265,-0.2881,-0.2881,-0.2882,-0.2932,-0.2933,-0.2934,-0.2946,-0.2945,-0.2945,-0.2944,-0.2921,-0.292,-0.292,0,0,0,0,0,0,0,0,0,0,0,0,0,-0.273,-0.2652,-0.2881,-0.2892,-0.2893,-0.2931,-0.2933,-0.2934,-0.2946,-0.2945,-0.2945,-0.2944,-0.2921,-0.292,-0.292,-0.2939,0,0,-0.292,-0.292,0,0,0,0,0,0,0,0,-0.2725,-0.2739,-0.289,-0.2891,-0.2892,-0.2929,-0.284,-0.2931,-0.2947,-0.293,-0.2944,-0.2943,-0.2915,-0.2915,-0.2933,-0.2937,-0.2936,-0.292,-0.292,-0.292,-0.292,0,0,0,0,0,0,0,-0.272,-0.2736,-0.2904,-0.289,-0.2892,-0.2842,-0.2855,-0.2857,-0.2928,-0.2931,-0.2931,-0.2932,-0.2915,-0.2933,-0.2932,-0.2936,-0.292,-0.292,-0.292,-0.292,-0.2857,-0.2855,0,0,0,0,0,0,-0.2717,-0.2732,-0.2903,-0.2906,-0.2801,-0.2847,-0.2862,-0.2921,-0.293,-0.293,-0.2933,-0.2932,-0.2933,-0.2932,-0.2931,-0.2878,-0.292,-0.292,-0.292,-0.2859,-0.2857,-0.2855,0,0,0,0,0,0,-0.2713,-0.2734,-0.2901,-0.2813,-0.283,-0.2853,-0.2919,-0.2922,-0.2932,-0.2931,-0.293,-0.2937,-0.2933,-0.2931,-0.2921,-0.288,-0.292,-0.292,-0.2861,-0.2858,-0.2856,-0.282,0,0,0,0,0,0,-0.2707,-0.2734,-0.2776,-0.2815,-0.2835,-0.2922,-0.2919,-0.2924,-0.2933,-0.2933,-0.2935,-0.2933,-0.2932,-0.2922,-0.2921,-0.2881,-0.292,-0.2863,-0.2859,-0.2857,-0.2824,-0.2817,-0.2811,0,0,0,0,0,-0.2699,-0.2762,-0.278,-0.2799,-0.2895,-0.2922,-0.2929,-0.294,-0.2934,-0.2945,-0.2936,-0.2932,-0.29,-0.2922,-0.2921,-0.2879,-0.2864,-0.286,-0.2857,-0.2826,-0.2818,-0.2812,0,0,0,0,0,0,-0.2691,-0.277,-0.279,-0.2879,-0.2895,-0.2923,-0.2935,-0.2939,-0.2945,-0.2937,-0.2933,-0.2931,-0.2899,-0.2899,-0.2922,-0.2849,-0.2873,-0.2869,-0.2849,-0.2842,-0.2836,-0.2774,-0.292,0,0,0,0,0,-0.2709,-0.277,-0.282,-0.2882,-0.2894,-0.2912,-0.2924,-0.2929,-0.2937,-0.294,-0.2942,-0.2922,-0.2887,-0.2874,-0.2862,-0.2839,-0.2803,-0.2804,-0.2798,-0.2793,-0.2739,-0.2665,-0.2647,-0.2843,-0.2843,-0.2843,0,0,-0.2716,-0.2767,-0.2801,-0.288,-0.2895,-0.2894,-0.2918,-0.2934,-0.2908,-0.2934,-0.2912,-0.2911,-0.2877,-0.2843,-0.2826,-0.2837,-0.2725,-0.2788,-0.2784,-0.2732,-0.2659,-0.264,-0.2623,-0.284,-0.2841,-0.2841,0,0,-0.2723,-0.2812,-0.2841,-0.2853,-0.2877,-0.2887,-0.2887,-0.2917,-0.2909,-0.2909,-0.2885,-0.2843,-0.2856,-0.2783,-0.2752,-0.2699,-0.2699,-0.2719,-0.2634,-0.2565,-0.2547,-0.2531,-0.2492,-0.2473,-0.2712,-0.2712,-0.2711,0,-0.2719,-0.2778,-0.2844,-0.285,-0.2839,-0.2875,-0.2856,-0.2859,-0.2874,-0.2843,-0.2896,-0.2818,-0.28,-0.2672,-0.2653,-0.2676,-0.2667,-0.2672,-0.2555,-0.2538,-0.2523,-0.2486,-0.2465,-0.2709,-0.271,-0.271,-0.271,0,-0.2718,-0.2757,-0.2768,-0.2788,-0.279,-0.2786,-0.2786,-0.2783,-0.2795,-0.2785,-0.2715,-0.2702,-0.2641,-0.2632,-0.263,-0.2492,-0.2534,-0.2563,-0.2574,-0.2501,-0.2468,-0.2447,-0.2706,-0.2707,-0.2708,-0.2708,0,0,-0.2682,-0.2759,-0.2746,-0.2737,-0.275,-0.2743,-0.2701,-0.266,-0.2614,-0.263,-0.2558,-0.2482,-0.2487,-0.2445,-0.2432,-0.2362,-0.226,-0.242,-0.2418,-0.238,-0.2141,-0.2119,-0.2095,-0.2298,-0.2293,-0.2289,-0.2174,0,-0.2633,-0.2647,-0.2683,-0.2636,-0.2626,-0.2634,-0.2596,-0.2558,-0.2552,-0.2511,-0.2447,-0.24,-0.2412,-0.2397,-0.2317,-0.2289,-0.2199,-0.2289,-0.2215,-0.2211,-0.2199,-0.2066,-0.2059,-0.195,-0.2154,-0.215,-0.2148,0,-0.2555,-0.2586,-0.2563,-0.2559,-0.2553,-0.2527,-0.2452,-0.2425,-0.2364,-0.2367,-0.2295,-0.2297,-0.2167,-0.2224,-0.2069,-0.2149,-0.2108,-0.2087,-0.2084,-0.2043,-0.2146,-0.2048,-0.1904,-0.1921,-0.2115,-0.2118,-0.212,0,-0.2428,-0.246,-0.2443,-0.2439,-0.2463,-0.2424,-0.2413,-0.2362,-0.2326,-0.2262,-0.2259,-0.2144,-0.2106,-0.2025,-0.1988,-0.2038,-0.1853,-0.1923,-0.184,-0.1842,-0.1797,-0.1801,-0.1643,-0.1755,-0.1755,-0.1756,-0.1756,0,-0.2314,-0.2279,-0.2393,-0.2367,-0.232,-0.2352,-0.2275,-0.2255,-0.2227,-0.2175,-0.2171,-0.2118,-0.2061,-0.1982,-0.194,-0.1817,-0.1804,-0.1758,-0.1774,-0.1791,-0.1795,-0.1779,-0.1811,-0.1751,-0.1752,-0.1753,-0.1754,0,-0.2122,-0.2212,-0.2188,-0.2247,-0.2254,-0.2203,-0.2205,-0.2173,-0.2169,-0.2103,-0.2088,-0.2068,-0.198,-0.1914,-0.1791,-0.1752,-0.162,-0.1599,-0.1635,-0.1654,-0.1604,-0.1635,-0.1417,-0.137,-0.148,-0.1478,-0.1477,0,-0.2026,-0.2009,-0.2079,-0.2087,-0.2105,-0.2079,-0.2077,-0.2103,-0.209,-0.2067,-0.2038,-0.1964,-0.1901,-0.1732,-0.1642,-0.152,-0.152,-0.1438,-0.1481,-0.1526,-0.1573,-0.1584,-0.1563,-0.1435,-0.1433,-0.1432,-0.1431,0,-0.1825,-0.1866,-0.1871,-0.1926,-0.1939,-0.1949,-0.1958,-0.1958,-0.1997,-0.1961,-0.1927,-0.1881,-0.1755,-0.1642,-0.1501,-0.1427,-0.1432,-0.1404,-0.142,-0.1453,-0.1479,-0.1471,-0.1626,-0.1418,-0.1419,-0.142,-0.1421,-0.1421,-0.167,-0.1641,-0.171,-0.1735,-0.1788,-0.1843,-0.1798,-0.1861,-0.1842,-0.1803,-0.1817,-0.1724,-0.1669,-0.1483,-0.1402,-0.1307,-0.1305,-0.1292,-0.1309,-0.1302,-0.1276,-0.1401,-0.1237,-0.1237,-0.1237,-0.1237,-0.1238,0,-0.1484,-0.1502,-0.1528,-0.1597,-0.1646,-0.1703,-0.1736,-0.1693,-0.1664,-0.1663,-0.1606,-0.1556,-0.1478,-0.1415,-0.1329,-0.1258,-0.122,-0.1223,-0.1249,-0.1217,-0.1298,-0.1319,-0.12,-0.12,-0.12,-0.12,-0.12,-0.12,-0.1389,-0.1352,-0.1392,-0.1449,-0.1509,-0.1501,-0.1492,-0.1453,-0.1424,-0.135,-0.131,-0.1291,-0.1303,-0.1424,-0.1349,-0.1277,-0.1234,-0.1192,-0.1163,-0.1284,-0.1294,-0.1303,-0.1328,-0.1213,-0.1213,-0.1069,-0.1068,-0.1068]},{"header":{"parameterUnit":"m.s-1","parameterCategory":2,"la1":30.2991,"la2":30.254,"lo1":-89.0895,"lo2":-89.0444,"dy":0.0017,"dx":0.0017,"nx":28,"ny":28,"refTime":"2023-03-29T21:00:00:Z","depth":"0","parameterNumber":3,"parameterNumberName":"V-component_of_CURRENTS"},"data":[0,0,0,0,0,0,0,0,0,0,0,0,0,0,0,0,0,0,0,0,0,0,0,0,0,0,0,0,0,0,0,0,0,0,0,0,0,0,0,0,0,0,0,0,0,0,0,0,0,0,0,0,0,0,0,0,0,0,-0.0387,-0.0385,0,-0.0226,-0.0224,-0.0222,-0.0108,-0.0108,-0.0108,-0.0107,0.0156,0.0162,0.0169,0,0,0,0,0,0,0,0,0,0,0,0,0,-0.0482,-0.0481,-0.0387,-0.0385,-0.0384,-0.0227,-0.0224,-0.0221,-0.0108,-0.0108,-0.0107,-0.0107,0.0154,0.0162,0.017,0,0,0,0,0,0,0,0,0,0,0,0,0,-0.0388,-0.0481,-0.0387,-0.0312,-0.0305,-0.0227,-0.0224,-0.022,-0.0108,-0.0108,-0.0107,-0.0107,0.0151,0.0161,0.0171,0.022,0,0,0.0201,0.0205,0,0,0,0,0,0,0,0,-0.0394,-0.0384,-0.0325,-0.0318,-0.0309,-0.0191,-0.0161,-0.007,-0.0109,-0.0177,-0.0107,-0.0106,0.0045,0.0064,0.0099,0.0232,0.0244,0.0202,0.0208,0.0212,0.0215,0,0,0,0,0,0,0,-0.04,-0.039,-0.0318,-0.0324,-0.0314,-0.0248,-0.0235,-0.0143,-0.0065,-0.0171,-0.0164,-0.0155,0.0051,0.0089,0.0106,0.0247,0.0202,0.0211,0.0217,0.0221,0.0481,0.0482,0,0,0,0,0,0,-0.0438,-0.0397,-0.0323,-0.0313,-0.0357,-0.0248,-0.0233,-0.0225,-0.0068,-0.0046,-0.0156,-0.015,0.0072,0.0095,0.0116,0.0233,0.0212,0.0222,0.0227,0.048,0.0481,0.0482,0,0,0,0,0,0,-0.044,-0.0433,-0.0329,-0.0355,-0.0338,-0.0249,-0.024,-0.0223,-0.019,-0.0058,-0.0033,-0.0143,0.0073,0.0102,0.0196,0.0242,0.0226,0.0235,0.0479,0.048,0.0482,0.0434,0,0,0,0,0,0,-0.0444,-0.0435,-0.044,-0.0358,-0.0338,-0.0292,-0.0241,-0.022,-0.0187,-0.0179,-0.0039,-0.0013,0.0076,0.018,0.0206,0.0255,0.0243,0.0478,0.0479,0.0481,0.0435,0.0434,0.0433,0,0,0,0,0,-0.0448,-0.0459,-0.0441,-0.0432,-0.0349,-0.0293,-0.0276,-0.0206,-0.0188,-0.0174,-0.0081,-0.0018,0.021,0.0188,0.0218,0.0272,0.0477,0.0479,0.0481,0.0435,0.0434,0.0433,0,0,0,0,0,0,-0.0499,-0.0447,-0.0425,-0.0419,-0.0367,-0.0276,-0.0262,-0.022,-0.0137,-0.0132,-0.0009,0.0023,0.0117,0.0193,0.0166,0.035,0.0356,0.0364,0.0311,0.0311,0.031,0.0332,0.0251,0,0,0,0,0,-0.0518,-0.0517,-0.045,-0.0448,-0.0428,-0.0351,-0.0321,-0.0278,-0.0199,-0.0163,-0.0059,0.005,0.015,0.0224,0.031,0.0417,0.0477,0.0471,0.047,0.0469,0.0505,0.0639,0.0655,0.0489,0.0489,0.0489,0,0,-0.0537,-0.0512,-0.0509,-0.046,-0.0415,-0.0375,-0.033,-0.0299,-0.0235,-0.0146,-0.0034,0.0035,0.0167,0.028,0.0333,0.0357,0.0529,0.0472,0.047,0.0508,0.0643,0.066,0.0675,0.0491,0.049,0.049,0,0,-0.0576,-0.0556,-0.0563,-0.0522,-0.0473,-0.0415,-0.0415,-0.0326,-0.0255,-0.0166,-0.0078,0.0022,0.0169,0.0299,0.0376,0.0426,0.0497,0.0441,0.0496,0.0623,0.0639,0.0653,0.0668,0.0685,0.0472,0.0472,0.0472,0,-0.0599,-0.0587,-0.0554,-0.0541,-0.049,-0.0439,-0.04,-0.0328,-0.0213,-0.0116,-0.0141,0.011,0.0194,0.0393,0.0406,0.0432,0.0472,0.0485,0.0624,0.064,0.0656,0.0669,0.0688,0.047,0.047,0.047,0.047,0,-0.0629,-0.061,-0.0611,-0.0564,-0.051,-0.0479,-0.0374,-0.0295,-0.0225,-0.0126,0.0044,0.0147,0.0321,0.0346,0.0394,0.0569,0.0541,0.0578,0.0624,0.067,0.0679,0.0699,0.0467,0.0467,0.0468,0.0469,0,0,-0.0687,-0.0637,-0.0635,-0.0578,-0.0508,-0.0447,-0.0343,-0.0182,-0.0058,0.0022,0.0201,0.0335,0.0392,0.0483,0.0556,0.0664,0.0759,0.0668,0.0676,0.0677,0.0964,0.0808,0.0815,0.0823,0.0829,0.0833,0.0894,0,-0.0704,-0.0673,-0.0631,-0.0547,-0.0497,-0.0384,-0.0262,-0.0114,0.0012,0.0188,0.0317,0.0468,0.0448,0.0526,0.0632,0.0745,0.0826,0.0735,0.0927,0.0931,0.0786,0.0841,0.084,0.0886,0.0914,0.0918,0.092,0,-0.0732,-0.069,-0.0635,-0.0462,-0.0423,-0.0362,-0.011,0.0002,0.0241,0.0343,0.0498,0.0587,0.0762,0.0716,0.0928,0.0867,0.0916,0.0968,0.0973,0.0878,0.0819,0.0864,0.0923,0.1038,0.0953,0.095,0.0948,0,-0.0758,-0.0664,-0.0604,-0.0563,-0.0395,-0.0296,-0.0178,0.0052,0.0191,0.0434,0.0529,0.0741,0.0831,0.0959,0.1003,0.1004,0.118,0.121,0.1106,0.1091,0.1158,0.114,0.1363,0.1367,0.1367,0.1367,0.1367,0,-0.0773,-0.0711,-0.0609,-0.0577,-0.0419,-0.0296,-0.0103,0.0056,0.0266,0.0417,0.0589,0.0704,0.09,0.0999,0.1055,0.1099,0.1222,0.1128,0.1129,0.1124,0.1104,0.126,0.1305,0.1369,0.1368,0.1368,0.1368,0,-0.0815,-0.0771,-0.0675,-0.0513,-0.0448,-0.0334,-0.0109,0.0043,0.0219,0.0406,0.047,0.0704,0.0826,0.0939,0.1128,0.1135,0.1254,0.1191,0.1092,0.108,0.1091,0.113,0.1312,0.1365,0.1146,0.1143,0.114,0,-0.083,-0.0808,-0.0665,-0.0588,-0.0519,-0.0348,-0.0213,-0.0003,0.0129,0.0375,0.0456,0.0622,0.0716,0.0879,0.0972,0.1044,0.1147,0.1056,0.1083,0.1104,0.1154,0.1176,0.1213,0.1129,0.1127,0.1125,0.1124,0,-0.0837,-0.0815,-0.074,-0.0611,-0.0484,-0.032,-0.0144,-0.0067,0.016,0.0254,0.0377,0.0454,0.0628,0.0742,0.0824,0.0871,0.1127,0.1011,0.1154,0.1253,0.1191,0.1234,0.0987,0.1106,0.1108,0.1109,0.111,0.1111,-0.0835,-0.0798,-0.0723,-0.0581,-0.044,-0.0292,-0.0187,-0.0066,0.0053,0.02,0.0246,0.0351,0.0575,0.0716,0.0772,0.0954,0.0977,0.1042,0.1107,0.114,0.1157,0.077,0.0805,0.0805,0.0805,0.0805,0.0805,0,-0.0808,-0.0768,-0.0668,-0.0499,-0.0361,-0.029,-0.0116,-0.0044,0.0014,0.0103,0.014,0.0344,0.053,0.0767,0.1006,0.1091,0.1174,0.116,0.1308,0.1358,0.1152,0.1117,0.1077,0.1077,0.1077,0.1077,0.1077,0.1076,-0.078,-0.0718,-0.0676,-0.0459,-0.0343,-0.0182,-0.0111,-0.0035,0.0044,0.0132,0.0243,0.0325,0.0645,0.1088,0.1347,0.1355,0.1526,0.1447,0.1543,0.1504,0.1503,0.1501,0.1485,0.1523,0.1524,0.1771,0.1774,0.1776]}],[{"header":{"parameterUnit":"m.s-1","parameterCategory":2,"la1":30.2991,"la2":30.254,"lo1":-89.0895,"lo2":-89.0444,"dy":0.0017,"dx":0.0017,"nx":28,"ny":28,"refTime":"2023-03-29T21:00:00:Z","depth":"2","parameterNumber":2,"parameterNumberName":"U-component_of_CURRENTS"},"data":[0,0,0,0,0,0,0,0,0,0,0,0,0,0,0,0,0,0,0,0,0,0,0,0,0,0,0,0,0,0,0,0,0,0,0,0,0,0,0,0,0,0,0,0,0,0,0,0,0,0,0,0,0,0,0,0,0,0,-0.2553,-0.2554,0,-0.2596,-0.2596,-0.2596,-0.2575,-0.2575,-0.2574,-0.2574,-0.2627,-0.2629,-0.2631,0,0,0,0,0,0,0,0,0,0,0,0,0,-0.2366,-0.237,-0.2553,-0.2554,-0.2555,-0.2596,-0.2596,-0.2596,-0.2576,-0.2575,-0.2574,-0.2574,-0.2627,-0.2629,-0.2631,0,0,0,0,0,0,0,0,0,0,0,0,0,-0.2427,-0.2371,-0.2553,-0.2555,-0.2556,-0.2596,-0.2596,-0.2596,-0.2576,-0.2575,-0.2574,-0.2573,-0.2626,-0.2629,-0.2632,-0.2666,0,0,-0.2641,-0.2642,0,0,0,0,0,0,0,0,-0.2423,-0.2433,-0.2553,-0.2555,-0.2556,-0.2585,-0.255,-0.2622,-0.2576,-0.2562,-0.2574,-0.2573,-0.2619,-0.2622,-0.2623,-0.2668,-0.2671,-0.2641,-0.2643,-0.2644,-0.2645,0,0,0,0,0,0,0,-0.2419,-0.243,-0.2564,-0.2555,-0.2556,-0.2523,-0.2531,-0.2562,-0.259,-0.2563,-0.2563,-0.2578,-0.2619,-0.262,-0.2625,-0.2671,-0.2641,-0.2643,-0.2645,-0.2646,-0.2696,-0.2695,0,0,0,0,0,0,-0.2433,-0.2428,-0.2563,-0.2566,-0.2493,-0.2528,-0.2537,-0.2571,-0.2589,-0.2593,-0.2578,-0.2577,-0.2616,-0.2621,-0.2626,-0.2632,-0.2644,-0.2647,-0.2648,-0.2696,-0.2696,-0.2695,0,0,0,0,0,0,-0.2429,-0.2445,-0.2561,-0.25,-0.2514,-0.2534,-0.2572,-0.2573,-0.2586,-0.2602,-0.2604,-0.2592,-0.2615,-0.2622,-0.2669,-0.2635,-0.2648,-0.265,-0.2697,-0.2696,-0.2695,-0.2666,0,0,0,0,0,0,-0.2423,-0.2444,-0.2459,-0.2503,-0.2518,-0.2591,-0.2573,-0.2574,-0.2598,-0.2596,-0.2615,-0.2618,-0.2615,-0.2664,-0.2671,-0.2639,-0.2653,-0.2697,-0.2696,-0.2695,-0.2667,-0.2664,-0.2662,0,0,0,0,0,-0.2417,-0.2448,-0.246,-0.2476,-0.2544,-0.2592,-0.2596,-0.2602,-0.26,-0.2609,-0.2627,-0.2618,-0.2662,-0.2668,-0.2676,-0.2644,-0.2697,-0.2696,-0.2696,-0.2669,-0.2665,-0.2662,0,0,0,0,0,0,-0.2386,-0.2452,-0.2464,-0.2518,-0.2555,-0.2591,-0.2608,-0.2615,-0.2635,-0.2636,-0.2644,-0.265,-0.2663,-0.2674,-0.268,-0.2653,-0.2666,-0.2666,-0.2642,-0.2639,-0.2636,-0.2551,-0.2655,0,0,0,0,0,-0.2388,-0.2428,-0.2482,-0.2529,-0.2552,-0.2583,-0.26,-0.2607,-0.2639,-0.2646,-0.2669,-0.2675,-0.2664,-0.2672,-0.268,-0.2695,-0.2651,-0.2669,-0.2666,-0.2664,-0.2599,-0.251,-0.2491,-0.2692,-0.2692,-0.2692,0,0,-0.2398,-0.2436,-0.2462,-0.2524,-0.2557,-0.257,-0.2591,-0.263,-0.2617,-0.2653,-0.2665,-0.2682,-0.267,-0.2666,-0.267,-0.2673,-0.26,-0.2663,-0.266,-0.2595,-0.2506,-0.2486,-0.2468,-0.2691,-0.2691,-0.2691,0,0,-0.2415,-0.247,-0.2491,-0.252,-0.2568,-0.2579,-0.2596,-0.2644,-0.2641,-0.2682,-0.2663,-0.2648,-0.271,-0.2637,-0.2617,-0.2604,-0.2591,-0.2636,-0.2548,-0.2465,-0.2446,-0.2429,-0.2411,-0.2391,-0.2629,-0.2629,-0.2629,0,-0.2407,-0.245,-0.2505,-0.2522,-0.2531,-0.2583,-0.2583,-0.2592,-0.2643,-0.2624,-0.2687,-0.2658,-0.2661,-0.2554,-0.2542,-0.2585,-0.2576,-0.2567,-0.2456,-0.2438,-0.242,-0.2405,-0.2384,-0.2628,-0.2628,-0.2628,-0.2628,0,-0.2419,-0.2453,-0.2479,-0.2504,-0.2517,-0.2544,-0.256,-0.2572,-0.2602,-0.2598,-0.2563,-0.2569,-0.2528,-0.2533,-0.2538,-0.2401,-0.2452,-0.2468,-0.2457,-0.2397,-0.2388,-0.2366,-0.2626,-0.2626,-0.2627,-0.2627,0,0,-0.2374,-0.2465,-0.2464,-0.2462,-0.2505,-0.2507,-0.2497,-0.2473,-0.2425,-0.2483,-0.2404,-0.2382,-0.2383,-0.2352,-0.2345,-0.2266,-0.2165,-0.2318,-0.2314,-0.2284,-0.2037,-0.1997,-0.1971,-0.2182,-0.2177,-0.2173,-0.2102,0,-0.235,-0.2368,-0.2413,-0.2402,-0.2405,-0.2435,-0.2406,-0.2385,-0.239,-0.2339,-0.2302,-0.2259,-0.2314,-0.2292,-0.2215,-0.2168,-0.2098,-0.2185,-0.2108,-0.2105,-0.2062,-0.1938,-0.186,-0.1781,-0.2081,-0.2078,-0.2075,0,-0.2298,-0.2321,-0.2317,-0.2324,-0.2324,-0.2315,-0.2246,-0.2232,-0.217,-0.2177,-0.2124,-0.2124,-0.2002,-0.2074,-0.1939,-0.2011,-0.1998,-0.1978,-0.1976,-0.1907,-0.2019,-0.1876,-0.1731,-0.204,-0.2042,-0.2045,-0.2047,0,-0.2172,-0.2224,-0.2212,-0.2222,-0.225,-0.2225,-0.222,-0.2172,-0.2136,-0.2057,-0.204,-0.1934,-0.1901,-0.1831,-0.1825,-0.1881,-0.1692,-0.1769,-0.1719,-0.1722,-0.1609,-0.1608,-0.1631,-0.1631,-0.1631,-0.1631,-0.1632,0,-0.2086,-0.2067,-0.2161,-0.2147,-0.2096,-0.214,-0.206,-0.2045,-0.2002,-0.1938,-0.1943,-0.1872,-0.1841,-0.1767,-0.1749,-0.1657,-0.1639,-0.1635,-0.1653,-0.1609,-0.1608,-0.179,-0.1809,-0.1629,-0.1629,-0.163,-0.163,0,-0.1927,-0.2007,-0.1988,-0.2034,-0.2039,-0.1992,-0.1995,-0.1931,-0.1939,-0.1852,-0.1834,-0.1805,-0.1725,-0.1691,-0.158,-0.1572,-0.1475,-0.1456,-0.1438,-0.145,-0.1596,-0.1615,-0.137,-0.1367,-0.1365,-0.1362,-0.1361,0,-0.1845,-0.1832,-0.1882,-0.1879,-0.1904,-0.1877,-0.1844,-0.1868,-0.1827,-0.1808,-0.1746,-0.1689,-0.1621,-0.1465,-0.1405,-0.1324,-0.1391,-0.122,-0.1258,-0.1501,-0.1546,-0.157,-0.1592,-0.1148,-0.1145,-0.1142,-0.114,0,-0.1674,-0.1708,-0.1702,-0.1726,-0.1715,-0.1688,-0.1673,-0.1638,-0.1667,-0.1646,-0.1602,-0.1556,-0.1452,-0.1319,-0.123,-0.1174,-0.1218,-0.116,-0.1342,-0.1228,-0.1284,-0.1333,-0.1362,-0.1115,-0.1117,-0.1119,-0.112,-0.1121,-0.1535,-0.1502,-0.1541,-0.1543,-0.154,-0.1507,-0.1453,-0.1482,-0.1445,-0.1419,-0.1443,-0.1364,-0.1317,-0.1124,-0.1041,-0.0976,-0.1065,-0.1031,-0.1042,-0.1056,-0.1043,-0.1091,-0.0887,-0.0888,-0.0889,-0.089,-0.0891,0,-0.1358,-0.1362,-0.1361,-0.137,-0.133,-0.1387,-0.1334,-0.1259,-0.1226,-0.1244,-0.1238,-0.1062,-0.1005,-0.0946,-0.083,-0.0801,-0.0817,-0.0755,-0.0796,-0.082,-0.0842,-0.0821,-0.0605,-0.0604,-0.0603,-0.0603,0,0,-0.1264,-0.1208,-0.1229,-0.1165,-0.1183,-0.1069,-0.1023,-0.0954,-0.0915,-0.0854,-0.0854,-0.0959,-0.0925,-0.0781,-0.0734,-0.0652,-0.0723,-0.061,-0.0838,-0.091,-0.0931,-0.0997,-0.0991,0,0,0,0,0]},{"header":{"parameterUnit":"m.s-1","parameterCategory":2,"la1":30.2991,"la2":30.254,"lo1":-89.0895,"lo2":-89.0444,"dy":0.0017,"dx":0.0017,"nx":28,"ny":28,"refTime":"2023-03-29T21:00:00:Z","depth":"2","parameterNumber":3,"parameterNumberName":"V-component_of_CURRENTS"},"data":[0,0,0,0,0,0,0,0,0,0,0,0,0,0,0,0,0,0,0,0,0,0,0,0,0,0,0,0,0,0,0,0,0,0,0,0,0,0,0,0,0,0,0,0,0,0,0,0,0,0,0,0,0,0,0,0,0,0,-0.0528,-0.0527,0,-0.0415,-0.0414,-0.0412,-0.0345,-0.0344,-0.0344,-0.0344,-0.0081,-0.0075,-0.0068,0,0,0,0,0,0,0,0,0,0,0,0,0,-0.057,-0.057,-0.0529,-0.0527,-0.0526,-0.0415,-0.0413,-0.0412,-0.0345,-0.0344,-0.0344,-0.0344,-0.0083,-0.0075,-0.0067,0,0,0,0,0,0,0,0,0,0,0,0,0,-0.0514,-0.057,-0.0529,-0.0479,-0.0474,-0.0415,-0.0413,-0.0411,-0.0345,-0.0344,-0.0344,-0.0344,-0.0086,-0.0076,-0.0066,-0.0011,0,0,-0.0035,-0.0031,0,0,0,0,0,0,0,0,-0.0517,-0.0512,-0.0488,-0.0483,-0.0476,-0.0394,-0.0332,-0.027,-0.0345,-0.0393,-0.0344,-0.0343,-0.0172,-0.0155,-0.0136,0.0001,0.0012,-0.0034,-0.0028,-0.0024,-0.0021,0,0,0,0,0,0,0,-0.0521,-0.0516,-0.0483,-0.0487,-0.0479,-0.0423,-0.0415,-0.032,-0.0283,-0.0389,-0.0384,-0.0372,-0.0168,-0.0146,-0.0129,0.0016,-0.0035,-0.0026,-0.0019,-0.0015,0.0308,0.031,0,0,0,0,0,0,-0.0543,-0.0521,-0.0487,-0.048,-0.0497,-0.0423,-0.0414,-0.042,-0.0287,-0.0268,-0.0373,-0.0369,-0.0164,-0.0141,-0.0119,0.0021,-0.0024,-0.0014,-0.0009,0.0305,0.0308,0.0311,0,0,0,0,0,0,-0.0545,-0.0542,-0.0491,-0.0496,-0.0486,-0.0423,-0.043,-0.0418,-0.0392,-0.0277,-0.0254,-0.0358,-0.0163,-0.0134,-0.0014,0.003,-0.001,-0.0001,0.0302,0.0306,0.031,0.026,0,0,0,0,0,0,-0.0547,-0.0544,-0.056,-0.0499,-0.0487,-0.0458,-0.043,-0.0416,-0.0386,-0.038,-0.0256,-0.0232,-0.016,-0.0029,-0.0004,0.0043,0.0007,0.0299,0.0304,0.0309,0.0259,0.0262,0.0264,0,0,0,0,0,-0.0549,-0.057,-0.0562,-0.0558,-0.0511,-0.0458,-0.0446,-0.0398,-0.0386,-0.0373,-0.0276,-0.0236,0.0019,-0.0019,0.001,0.0061,0.0297,0.0303,0.0308,0.0257,0.0261,0.0264,0,0,0,0,0,0,-0.0593,-0.0564,-0.0553,-0.0565,-0.0517,-0.0446,-0.0435,-0.0402,-0.0321,-0.0314,-0.0206,-0.0173,-0.0062,0.0014,-0.0031,0.0171,0.0166,0.0178,0.0118,0.0122,0.0125,0.0129,0.0016,0,0,0,0,0,-0.0614,-0.0625,-0.0574,-0.0581,-0.0563,-0.0501,-0.0476,-0.0444,-0.0365,-0.0333,-0.0235,-0.0122,-0.0016,0.0061,0.015,0.0271,0.0296,0.0327,0.033,0.0331,0.0358,0.0462,0.0475,0.033,0.033,0.033,0,0,-0.063,-0.0618,-0.0622,-0.0591,-0.0553,-0.0518,-0.0485,-0.0452,-0.0397,-0.0311,-0.0202,-0.0124,0.0011,0.0133,0.0194,0.0208,0.0364,0.0338,0.0338,0.0365,0.0469,0.0483,0.0495,0.0333,0.0333,0.0332,0,0,-0.0659,-0.0659,-0.0671,-0.0634,-0.0589,-0.0543,-0.0536,-0.0459,-0.0399,-0.0297,-0.0217,-0.0102,0.0054,0.0175,0.0253,0.0336,0.0354,0.0358,0.0409,0.0508,0.052,0.0531,0.0472,0.0479,0.0388,0.0388,0.0388,0,-0.0678,-0.0683,-0.066,-0.0648,-0.0605,-0.0555,-0.0522,-0.0458,-0.0344,-0.0253,-0.0268,-0.0003,0.0085,0.0285,0.0306,0.0344,0.0346,0.0373,0.0508,0.0521,0.0533,0.0471,0.048,0.0386,0.0386,0.0386,0.0386,0,-0.0701,-0.0696,-0.0693,-0.0659,-0.0612,-0.0579,-0.0486,-0.0409,-0.0341,-0.0253,-0.0072,0.0044,0.0223,0.0256,0.0307,0.0467,0.041,0.0467,0.0485,0.0544,0.0474,0.0484,0.0383,0.0384,0.0385,0.0385,0,0,-0.0749,-0.0716,-0.0713,-0.0675,-0.0608,-0.0559,-0.0454,-0.031,-0.022,-0.0102,0.0032,0.0222,0.0286,0.038,0.0461,0.055,0.0584,0.0545,0.0551,0.0457,0.0684,0.0638,0.0642,0.0664,0.0668,0.0671,0.0556,0,-0.0759,-0.0742,-0.0709,-0.0644,-0.0608,-0.0504,-0.0406,-0.0269,-0.0158,-0.0029,0.014,0.0263,0.0337,0.0392,0.0512,0.0578,0.0626,0.0602,0.0668,0.0668,0.0601,0.0662,0.0602,0.05,0.0566,0.0567,0.0568,0,-0.078,-0.0755,-0.0715,-0.06,-0.0571,-0.0519,-0.0326,-0.0229,-0.0031,0.0053,0.0233,0.0311,0.0496,0.0494,0.069,0.0668,0.0678,0.0699,0.0697,0.0698,0.0647,0.048,0.0515,0.0584,0.0583,0.0582,0.0581,0,-0.0807,-0.074,-0.0701,-0.067,-0.0553,-0.0468,-0.0372,-0.0186,-0.008,0.0097,0.0156,0.0378,0.0471,0.0584,0.0661,0.0674,0.0779,0.0809,0.076,0.0748,0.074,0.0724,0.0913,0.0913,0.0913,0.0913,0.0914,0,-0.0819,-0.0779,-0.0709,-0.0687,-0.0581,-0.0483,-0.0349,-0.0219,-0.0073,0.003,0.02,0.0267,0.0506,0.0595,0.0644,0.073,0.079,0.0772,0.0763,0.0707,0.0691,0.0834,0.0826,0.0909,0.091,0.0911,0.0911,0,-0.0853,-0.0825,-0.0763,-0.0651,-0.0603,-0.0516,-0.0352,-0.0271,-0.0122,-0.0003,0.004,0.0218,0.0345,0.0506,0.0637,0.0709,0.0764,0.0755,0.0592,0.0571,0.0638,0.063,0.07,0.0698,0.0697,0.0696,0.0695,0,-0.0868,-0.0857,-0.0757,-0.0706,-0.0652,-0.0524,-0.0453,-0.0301,-0.0243,-0.0062,-0.0045,0.0114,0.0203,0.0374,0.0522,0.0611,0.0673,0.0581,0.0657,0.0656,0.0639,0.0632,0.0626,0.0548,0.0546,0.0544,0.0543,0,-0.0877,-0.0861,-0.0812,-0.0725,-0.0652,-0.0573,-0.0474,-0.0473,-0.0322,-0.022,-0.0153,-0.0084,0.0119,0.0241,0.0402,0.0443,0.0586,0.0549,0.0655,0.0632,0.0512,0.0495,0.0494,0.0528,0.0529,0.0531,0.0531,0.0532,-0.0876,-0.0849,-0.0801,-0.0705,-0.065,-0.0648,-0.0618,-0.0557,-0.0496,-0.0375,-0.0315,-0.017,-0.0012,0.0212,0.0315,0.0448,0.047,0.0496,0.0502,0.0509,0.0535,0.0424,0.0415,0.0416,0.0416,0.0417,0.0417,0,-0.0856,-0.083,-0.0766,-0.0699,-0.0691,-0.0629,-0.0641,-0.0676,-0.0653,-0.0497,-0.0378,-0.0232,-0.0082,0.0105,0.0288,0.0386,0.0411,0.0404,0.0422,0.0433,0.0443,0.047,0.033,0.0331,0.0331,0.0332,0,0,-0.0835,-0.0796,-0.0771,-0.0746,-0.0712,-0.0742,-0.0773,-0.0816,-0.0769,-0.0653,-0.047,-0.0312,-0.0115,0.0007,0.0143,0.0243,0.0309,0.0245,0.029,0.03,0.0311,0.0458,0.0505,0,0,0,0,0]}],[{"header":{"parameterUnit":"m.s-1","parameterCategory":2,"la1":30.2991,"la2":30.254,"lo1":-89.0895,"lo2":-89.0444,"dy":0.0017,"dx":0.0017,"nx":28,"ny":28,"refTime":"2023-03-29T21:00:00:Z","depth":"4","parameterNumber":2,"parameterNumberName":"U-component_of_CURRENTS"},"data":[0,0,0,0,0,0,0,0,0,0,0,0,0,0,0,0,0,0,0,0,0,0,0,0,0,0,0,0,0,0,0,0,0,0,0,0,0,0,0,0,0,0,0,0,0,0,0,0,0,0,0,0,0,0,0,0,0,0,-0.1203,-0.1203,0,-0.1189,-0.1189,-0.1188,-0.1233,-0.1235,-0.1236,-0.1238,-0.1363,-0.1364,-0.1366,0,0,0,0,0,0,0,0,0,0,0,0,0,-0.1317,-0.1314,-0.1203,-0.1203,-0.1203,-0.1189,-0.1189,-0.1188,-0.1233,-0.1235,-0.1237,-0.1238,-0.1362,-0.1364,-0.1367,0,0,0,0,0,0,0,0,0,0,0,0,0,-0.128,-0.1313,-0.1203,-0.1225,-0.1227,-0.1189,-0.1189,-0.1188,-0.1233,-0.1235,-0.1237,-0.1239,-0.1361,-0.1364,-0.1367,-0.1339,0,0,-0.1376,-0.1377,0,0,0,0,0,0,0,0,-0.1281,-0.1275,-0.1222,-0.1223,-0.1226,-0.1217,-0.1275,-0.1246,-0.1232,-0.1229,-0.1238,-0.124,-0.1326,-0.1332,-0.132,-0.1344,-0.135,-0.1376,-0.1378,-0.1379,-0.138,0,0,0,0,0,0,0,-0.1284,-0.1276,-0.1196,-0.1222,-0.1224,-0.1252,-0.1249,-0.1269,-0.1266,-0.1229,-0.1233,-0.1233,-0.1328,-0.1317,-0.1324,-0.1352,-0.1376,-0.1378,-0.138,-0.1381,-0.1383,-0.1381,0,0,0,0,0,0,-0.1283,-0.1278,-0.1196,-0.1195,-0.1262,-0.1248,-0.1244,-0.1216,-0.1263,-0.1271,-0.1231,-0.1235,-0.1311,-0.132,-0.1328,-0.1354,-0.1379,-0.1381,-0.1383,-0.1385,-0.1383,-0.1381,0,0,0,0,0,0,-0.1285,-0.1275,-0.1197,-0.124,-0.1233,-0.1244,-0.1211,-0.1214,-0.1239,-0.1263,-0.1275,-0.1258,-0.1313,-0.1324,-0.1353,-0.1358,-0.1383,-0.1385,-0.1387,-0.1384,-0.1382,-0.1371,0,0,0,0,0,0,-0.1288,-0.1275,-0.1268,-0.1239,-0.123,-0.1197,-0.121,-0.1213,-0.1234,-0.1241,-0.1289,-0.13,-0.1316,-0.1348,-0.1356,-0.1362,-0.1388,-0.1389,-0.1385,-0.1382,-0.1374,-0.1369,-0.1364,0,0,0,0,0,-0.1292,-0.1269,-0.1266,-0.1258,-0.1213,-0.1197,-0.1195,-0.1211,-0.1234,-0.1242,-0.1262,-0.1301,-0.1334,-0.135,-0.1359,-0.1366,-0.139,-0.1386,-0.1383,-0.1376,-0.137,-0.1364,0,0,0,0,0,0,-0.1315,-0.127,-0.1267,-0.1233,-0.1227,-0.1206,-0.1214,-0.1225,-0.1243,-0.1266,-0.1288,-0.1299,-0.1336,-0.1335,-0.1352,-0.135,-0.1365,-0.1363,-0.1356,-0.1351,-0.1346,-0.1372,-0.139,0,0,0,0,0,-0.1312,-0.1281,-0.1258,-0.1231,-0.1232,-0.1228,-0.123,-0.1245,-0.125,-0.1262,-0.1281,-0.1298,-0.1316,-0.1324,-0.1347,-0.1341,-0.1341,-0.1344,-0.1339,-0.1336,-0.1357,-0.135,-0.1347,-0.1368,-0.1368,-0.1369,0,0,-0.1312,-0.1284,-0.1268,-0.1235,-0.1231,-0.1221,-0.1236,-0.1248,-0.1242,-0.1273,-0.1278,-0.1307,-0.1316,-0.1318,-0.133,-0.1323,-0.1318,-0.1331,-0.1328,-0.1353,-0.1346,-0.1344,-0.1343,-0.1366,-0.1366,-0.1367,0,0,-0.1293,-0.1275,-0.125,-0.1249,-0.1251,-0.1242,-0.1254,-0.1249,-0.1255,-0.1258,-0.128,-0.1298,-0.1313,-0.1307,-0.1309,-0.1285,-0.1313,-0.1295,-0.1279,-0.127,-0.1269,-0.1269,-0.1226,-0.1222,-0.127,-0.127,-0.127,0,-0.1305,-0.1253,-0.1246,-0.1234,-0.123,-0.1252,-0.1242,-0.124,-0.1245,-0.124,-0.1267,-0.1281,-0.1301,-0.1289,-0.1286,-0.128,-0.1277,-0.1306,-0.1268,-0.1268,-0.1268,-0.1224,-0.122,-0.1269,-0.1269,-0.1269,-0.1269,0,-0.1271,-0.1244,-0.1236,-0.1211,-0.1211,-0.121,-0.1209,-0.1214,-0.1229,-0.1224,-0.1241,-0.1256,-0.1263,-0.1262,-0.1279,-0.1277,-0.1274,-0.1285,-0.1292,-0.1266,-0.122,-0.1216,-0.1267,-0.1268,-0.1268,-0.1268,0,0,-0.1265,-0.1215,-0.122,-0.1194,-0.1204,-0.1188,-0.1186,-0.1169,-0.1164,-0.1185,-0.1167,-0.12,-0.1234,-0.1238,-0.1254,-0.1246,-0.1232,-0.1274,-0.1274,-0.1249,-0.12,-0.114,-0.113,-0.1253,-0.1253,-0.1253,-0.1155,0,-0.1245,-0.1191,-0.1184,-0.1147,-0.1119,-0.1139,-0.1119,-0.1121,-0.1134,-0.1125,-0.1149,-0.1156,-0.1212,-0.1226,-0.1236,-0.1251,-0.1229,-0.1257,-0.1216,-0.1214,-0.118,-0.1126,-0.1254,-0.1152,-0.1151,-0.115,-0.115,0,-0.1231,-0.1181,-0.1133,-0.1078,-0.1073,-0.1065,-0.1047,-0.1037,-0.1046,-0.1065,-0.11,-0.1128,-0.114,-0.1186,-0.1198,-0.1224,-0.1225,-0.1221,-0.1217,-0.1174,-0.1148,-0.1191,-0.1143,-0.1143,-0.1144,-0.1144,-0.1145,0,-0.1213,-0.1156,-0.1101,-0.1091,-0.104,-0.1028,-0.1013,-0.1021,-0.1002,-0.1034,-0.1038,-0.1078,-0.1088,-0.1118,-0.1151,-0.1178,-0.1149,-0.1162,-0.109,-0.1084,-0.1178,-0.118,-0.1154,-0.1155,-0.1155,-0.1155,-0.1155,0,-0.1184,-0.1148,-0.1085,-0.1056,-0.0991,-0.0991,-0.0951,-0.0961,-0.0965,-0.0955,-0.1013,-0.1019,-0.1084,-0.1084,-0.1119,-0.1093,-0.1117,-0.1085,-0.106,-0.1166,-0.1168,-0.1172,-0.1176,-0.1151,-0.1152,-0.1153,-0.1154,0,-0.1164,-0.1133,-0.1056,-0.0991,-0.0977,-0.0932,-0.0895,-0.0871,-0.0901,-0.0896,-0.0903,-0.0953,-0.097,-0.0997,-0.1017,-0.1022,-0.1008,-0.0988,-0.1071,-0.1053,-0.0949,-0.0953,-0.0877,-0.0874,-0.0872,-0.087,-0.0868,0,-0.1121,-0.1087,-0.1009,-0.0958,-0.0926,-0.0868,-0.0837,-0.0844,-0.0832,-0.0862,-0.0854,-0.0865,-0.0906,-0.0858,-0.0917,-0.091,-0.0926,-0.0889,-0.0957,-0.094,-0.0923,-0.0931,-0.0937,-0.0865,-0.0864,-0.0863,-0.0863,0,-0.103,-0.1033,-0.0969,-0.088,-0.0829,-0.0764,-0.0732,-0.0714,-0.0745,-0.0775,-0.0791,-0.0797,-0.0797,-0.0824,-0.0809,-0.0825,-0.0902,-0.0864,-0.087,-0.0934,-0.0923,-0.0911,-0.092,-0.0854,-0.0856,-0.0856,-0.0857,0,-0.0958,-0.091,-0.0853,-0.0756,-0.0709,-0.0663,-0.0659,-0.0643,-0.0631,-0.0698,-0.0707,-0.0752,-0.0799,-0.0776,-0.078,-0.077,-0.0776,-0.077,-0.0781,-0.0791,-0.0816,-0.0793,-0.0652,0,0,0,0,0,-0.0856,-0.0801,-0.0723,-0.062,-0.0593,-0.0569,-0.0579,-0.0596,-0.0647,-0.0644,-0.0674,-0.069,-0.07,-0.0714,-0.0688,-0.0728,-0.0766,-0.0693,-0.0762,-0.0808,-0.0818,-0.0859,0,0,0,0,0,0,-0.078,-0.0729,-0.0685,-0.0533,-0.0463,-0.043,-0.0444,-0.0496,-0.0496,-0.0571,-0.0575,-0.0635,-0.0643,-0.0695,-0.0665,-0.0669,-0.0699,-0.072,-0.0718,-0.0803,-0.0811,-0.0819,-0.0865,0,0,0,0,0]},{"header":{"parameterUnit":"m.s-1","parameterCategory":2,"la1":30.2991,"la2":30.254,"lo1":-89.0895,"lo2":-89.0444,"dy":0.0017,"dx":0.0017,"nx":28,"ny":28,"refTime":"2023-03-29T21:00:00:Z","depth":"4","parameterNumber":3,"parameterNumberName":"V-component_of_CURRENTS"},"data":[0,0,0,0,0,0,0,0,0,0,0,0,0,0,0,0,0,0,0,0,0,0,0,0,0,0,0,0,0,0,0,0,0,0,0,0,0,0,0,0,0,0,0,0,0,0,0,0,0,0,0,0,0,0,0,0,0,0,-0.0586,-0.0586,0,-0.0595,-0.0595,-0.0595,-0.0603,-0.0603,-0.0603,-0.0603,-0.0617,-0.0618,-0.0618,0,0,0,0,0,0,0,0,0,0,0,0,0,-0.0517,-0.0519,-0.0586,-0.0586,-0.0586,-0.0595,-0.0595,-0.0595,-0.0603,-0.0603,-0.0603,-0.0603,-0.0617,-0.0618,-0.0618,0,0,0,0,0,0,0,0,0,0,0,0,0,-0.054,-0.0519,-0.0586,-0.059,-0.059,-0.0595,-0.0595,-0.0595,-0.0603,-0.0603,-0.0603,-0.0603,-0.0617,-0.0618,-0.0618,-0.0622,0,0,-0.062,-0.062,0,0,0,0,0,0,0,0,-0.0539,-0.0543,-0.0589,-0.059,-0.059,-0.0597,-0.0576,-0.0604,-0.0603,-0.0599,-0.0603,-0.0603,-0.061,-0.0611,-0.0615,-0.0623,-0.0624,-0.062,-0.062,-0.0621,-0.0621,0,0,0,0,0,0,0,-0.0537,-0.0542,-0.0591,-0.0589,-0.059,-0.0571,-0.0575,-0.0581,-0.0606,-0.06,-0.06,-0.0599,-0.061,-0.0614,-0.0615,-0.0624,-0.062,-0.062,-0.0621,-0.0621,-0.0656,-0.0656,0,0,0,0,0,0,-0.0537,-0.0541,-0.059,-0.0591,-0.0562,-0.0573,-0.0577,-0.0596,-0.0606,-0.0607,-0.0599,-0.0599,-0.0613,-0.0614,-0.0615,-0.0663,-0.0621,-0.0621,-0.0621,-0.0655,-0.0656,-0.0656,0,0,0,0,0,0,-0.0536,-0.0542,-0.059,-0.0563,-0.0568,-0.0574,-0.0595,-0.0596,-0.0612,-0.0605,-0.0606,-0.0615,-0.0613,-0.0615,-0.0635,-0.0662,-0.0621,-0.0622,-0.0654,-0.0655,-0.0656,-0.073,0,0,0,0,0,0,-0.0534,-0.0542,-0.0563,-0.0564,-0.057,-0.0598,-0.0595,-0.0596,-0.061,-0.0611,-0.0619,-0.0619,-0.0613,-0.0634,-0.0635,-0.0662,-0.0622,-0.0654,-0.0655,-0.0656,-0.0727,-0.0734,-0.0739,0,0,0,0,0,-0.0532,-0.0554,-0.0564,-0.057,-0.0596,-0.0598,-0.0599,-0.0603,-0.0611,-0.0618,-0.0629,-0.062,-0.0641,-0.0635,-0.0637,-0.0664,-0.0653,-0.0654,-0.0656,-0.0725,-0.0732,-0.0739,0,0,0,0,0,0,-0.0537,-0.0556,-0.0568,-0.0597,-0.0601,-0.0599,-0.0604,-0.0613,-0.0628,-0.0634,-0.0632,-0.0634,-0.0658,-0.0648,-0.0641,-0.0674,-0.0643,-0.0645,-0.0695,-0.0703,-0.0709,-0.0721,-0.0623,0,0,0,0,0,-0.0548,-0.0571,-0.058,-0.0604,-0.0604,-0.061,-0.0615,-0.0621,-0.0628,-0.0636,-0.0644,-0.0651,-0.0662,-0.0673,-0.0672,-0.0698,-0.0676,-0.0712,-0.0718,-0.0723,-0.0733,-0.0744,-0.0752,-0.066,-0.066,-0.066,0,0,-0.0555,-0.057,-0.0584,-0.0607,-0.0608,-0.0611,-0.0613,-0.0623,-0.0645,-0.0635,-0.0669,-0.0671,-0.0671,-0.0696,-0.0706,-0.0696,-0.073,-0.0725,-0.073,-0.0736,-0.0746,-0.0755,-0.0763,-0.0661,-0.0661,-0.0661,0,0,-0.0566,-0.0594,-0.0608,-0.0613,-0.0622,-0.0623,-0.063,-0.064,-0.0664,-0.0695,-0.0694,-0.0717,-0.0731,-0.0742,-0.0748,-0.0787,-0.0757,-0.0783,-0.0834,-0.0845,-0.0853,-0.086,-0.0812,-0.0815,-0.0792,-0.0792,-0.0792,0,-0.0575,-0.0605,-0.0611,-0.0618,-0.063,-0.063,-0.0644,-0.0662,-0.0685,-0.0721,-0.0712,-0.0755,-0.0755,-0.0798,-0.0814,-0.0803,-0.0785,-0.0812,-0.0855,-0.0862,-0.0868,-0.0817,-0.0819,-0.0796,-0.0796,-0.0795,-0.0795,0,-0.0586,-0.0615,-0.0619,-0.0636,-0.0644,-0.0658,-0.0675,-0.0704,-0.0733,-0.0761,-0.0818,-0.082,-0.0851,-0.0852,-0.0851,-0.0897,-0.0859,-0.0859,-0.0842,-0.0882,-0.0825,-0.0825,-0.0801,-0.08,-0.0799,-0.0798,0,0,-0.0604,-0.0626,-0.0632,-0.0655,-0.0665,-0.0677,-0.0712,-0.0761,-0.0806,-0.0836,-0.0897,-0.0928,-0.0942,-0.0949,-0.0947,-0.0961,-0.0977,-0.0938,-0.0937,-0.0898,-0.0963,-0.0837,-0.0824,-0.0995,-0.0996,-0.0997,-0.0895,0,-0.0619,-0.0646,-0.0656,-0.0691,-0.0707,-0.0728,-0.0761,-0.0808,-0.0852,-0.0904,-0.094,-0.098,-0.0976,-0.0994,-0.1015,-0.0989,-0.0987,-0.1002,-0.0924,-0.092,-0.0811,-0.0825,-0.1001,-0.0895,-0.0895,-0.0895,-0.0895,0,-0.0634,-0.0655,-0.069,-0.0743,-0.0753,-0.0772,-0.0844,-0.0877,-0.0944,-0.0984,-0.1037,-0.1052,-0.1087,-0.1068,-0.1058,-0.107,-0.1029,-0.0997,-0.0992,-0.0854,-0.0796,-0.0853,-0.0895,-0.0895,-0.0895,-0.0895,-0.0895,0,-0.0651,-0.0691,-0.0729,-0.0742,-0.0781,-0.0822,-0.0851,-0.0912,-0.0956,-0.1033,-0.1061,-0.1109,-0.1113,-0.1106,-0.1039,-0.1064,-0.0987,-0.1009,-0.0846,-0.0833,-0.0946,-0.094,-0.0996,-0.0996,-0.0996,-0.0997,-0.0997,0,-0.0672,-0.071,-0.0745,-0.0765,-0.0822,-0.0846,-0.0913,-0.0957,-0.101,-0.105,-0.1103,-0.1111,-0.1128,-0.1084,-0.1044,-0.0919,-0.0988,-0.0847,-0.081,-0.0972,-0.0971,-0.0943,-0.0939,-0.0993,-0.0994,-0.0994,-0.0995,0,-0.0686,-0.0709,-0.0754,-0.0806,-0.0829,-0.0869,-0.0931,-0.0979,-0.1024,-0.1067,-0.1089,-0.1112,-0.1043,-0.0999,-0.094,-0.0889,-0.0803,-0.0734,-0.0857,-0.0829,-0.0642,-0.0642,-0.0573,-0.0568,-0.0564,-0.056,-0.0557,0,-0.0694,-0.0716,-0.0774,-0.0805,-0.0834,-0.0891,-0.0931,-0.0986,-0.1022,-0.1047,-0.106,-0.101,-0.1002,-0.0803,-0.0775,-0.0649,-0.0633,-0.0588,-0.0679,-0.0633,-0.0604,-0.0611,-0.0617,-0.0551,-0.055,-0.0548,-0.0547,0,-0.0704,-0.0725,-0.0755,-0.0814,-0.0865,-0.0919,-0.0975,-0.0985,-0.1028,-0.106,-0.0998,-0.0925,-0.0816,-0.073,-0.0601,-0.0532,-0.0636,-0.0544,-0.0555,-0.064,-0.0605,-0.0582,-0.0593,-0.0532,-0.0535,-0.0536,-0.0537,0,-0.0706,-0.0723,-0.0765,-0.0815,-0.0886,-0.094,-0.0961,-0.0969,-0.0986,-0.0988,-0.0946,-0.0863,-0.0823,-0.0661,-0.0559,-0.0455,-0.0463,-0.0472,-0.0487,-0.0503,-0.0519,-0.0466,-0.0315,0,0,0,0,0,-0.0701,-0.072,-0.0767,-0.0834,-0.0912,-0.0955,-0.0994,-0.1005,-0.1012,-0.0948,-0.0942,-0.0828,-0.0659,-0.0608,-0.0477,-0.0512,-0.0469,-0.0359,-0.0493,-0.045,-0.0467,-0.0489,0,0,0,0,0,0,-0.0696,-0.0737,-0.0755,-0.0847,-0.0903,-0.099,-0.101,-0.1012,-0.0963,-0.0942,-0.0842,-0.08,-0.0636,-0.0726,-0.0477,-0.0451,-0.0518,-0.0289,-0.0286,-0.044,-0.0456,-0.047,-0.0498,0,0,0,0,0]}]]